Regional Weather Roundup
Issued by NWS

Home | Current Version | Previous Version | Text Only | Print | Product List | Glossary Off
Versions: 1 2 3 4 5 6 7 8 9 10 11 12 13 14 15 16 17 18 19 20 21 22 23 24 25 26 27 28 29 30 31 32 33 34 35 36 37 38 39 40 41 42 43 44 45 46 47 48 49 50

000
ASUS43 KBIS 031710
RWRND

NORTH DAKOTA REGIONAL WEATHER ROUNDUP
NATIONAL WEATHER SERVICE BISMARCK ND
1200 PM CDT SUN MAY 03 2015

NOTE: "FAIR" INDICATES FEW OR NO CLOUDS BELOW 12,000 FEET WITH NO
SIGNIFICANT WEATHER AND/OR OBSTRUCTIONS TO VISIBILITY.


NDZ001>003-009>011-017-031800-
NORTHWEST NORTH DAKOTA

CITY           SKY/WX    TMP DP  RH WIND       PRES   REMARKS
WILLISTON      LGT RAIN  58  25  28 NW16G22   30.04R
MINOT          SUNNY     58  25  28 W20       29.98R
MINOT AFB      SUNNY     59  28  30 NW20G31   29.96S
$$

NDZ018>021-031>035-040>046-031800-
SOUTHWEST NORTH DAKOTA

CITY           SKY/WX    TMP DP  RH WIND       PRES   REMARKS
BISMARCK       PTSUNNY   61  25  25 N13G21    29.99S
DICKINSON      MOSUNNY   57  28  33 NW8G20    30.01R
GARRISON         N/A     61  25  25 NW20G26   29.99R
HETTINGER ARPT PTSUNNY   57  35  43 N10       30.02R
$$

NDZ004>008-012>016-024-026-027-054-031800-
NORTHEAST NORTH DAKOTA

CITY           SKY/WX    TMP DP  RH WIND       PRES   REMARKS
GRAND FORKS    CLOUDY    60  35  39 W17       29.90R
GRND FRKS AFB  CLOUDY    61  28  29 N17G23    29.90S
DEVILS LAKE    PTSUNNY   61  27  27 NW23G29   29.92S
$$

NDZ022-023-025-028>030-036>039-047>053-031800-
SOUTHEAST NORTH DAKOTA

CITY           SKY/WX    TMP DP  RH WIND       PRES   REMARKS
FARGO          CLOUDY    62  36  37 N23G33    29.89R
JAMESTOWN      PTSUNNY   57  26  30 N25G33    29.91R
$$




USA.gov is the U.S. government's official web portal to all federal, state and local government web resources and services.